Regional Weather Roundup
Issued by NWS

Home | Current Version | Previous Version | Graphics & Text | Print | Product List | Glossary On
Versions: 1 2 3 4 5 6 7 8 9 10 11 12 13 14 15 16 17 18 19 20 21 22 23 24 25 26 27 28 29 30 31 32 33 34 35 36 37 38 39 40 41 42 43 44 45 46 47 48 49 50
000
ASUS43 KLMK 210202
RWRKY
KENTUCKY REGIONAL WEATHER ROUNDUP
NATIONAL WEATHER SERVICE LOUISVILLE KY
1000 PM EDT WED AUG 20 2014

NOTE "FAIR" INDICATES FEW OR NO CLOUDS BELOW 12,000 FEET
WITH NO SIGNIFICANT WEATHER AND/OR OBSTRUCTIONS TO VISIBILITY.

KYZ001>023-026-027-061>063-070>075-210300-
WESTERN AND SOUTH CENTRAL KENTUCKY

CITY           SKY/WX    TMP DP  RH WIND       PRES   REMARKS
PADUCAH        PTCLDY    82  75  79 SE6       30.00R
HENDERSON      MOCLDY    79  70  73 S6        30.00R
OWENSBORO      CLOUDY    75  67  76 S6        30.03R
HOPKINSVILLE   LGT RAIN  73  73 100 VRB3      30.04F
BOWLING GREEN  MOCLDY    72  69  90 SE3       30.06R
GLASGOW        CLOUDY    71  71 100 SE6       30.08R
$$

KYZ024-025-028>034-038-045-046-053-210300-
NORTH CENTRAL KENTUCKY

CITY           SKY/WX    TMP DP  RH WIND       PRES   REMARKS
LOUISVILLE/SDF CLOUDY    79  72  79 S7        30.03R
LOUISVILLE/LOU CLOUDY    78  71  79 S3        30.04R
FORT KNOX      CLOUDY    75  72  91 S6        30.04R
$$

KYZ035>037-039>044-047>052-055>060-089>105-210300-
NORTHEAST KENTUCKY

CITY           SKY/WX    TMP DP  RH WIND       PRES   REMARKS
LEXINGTON      CLOUDY    72  67  84 S6        30.08R
COVINGTON      MOCLDY    72  68  87 SW5       30.04R
FRANKFORT      CLOUDY    72  69  90 S7        30.05R
$$

KYZ054-064>069-076>088-106>120-210300-
SOUTHEAST KENTUCKY

CITY           SKY/WX    TMP DP  RH WIND       PRES   REMARKS
JACKSON        CLOUDY    68  66  93 CALM      30.10R
LONDON         CLOUDY    71  67  87 S5        30.11S
SOMERSET       CLOUDY    68  68 100 S3        30.10S
MIDDLESBORO    CLOUDY    69  68  99 CALM      30.15R
MONTICELLO     CLOUDY    71  69  93 CALM      30.11R
$$



USA.gov is the U.S. government's official web portal to all federal, state and local government web resources and services.